Time,TemperatureF,DewpointF,PressureIn,WindDirection,WindDirectionDegrees,WindSpeedMPH,WindSpeedGustMPH,Humidity,HourlyPrecipIn,Conditions,Clouds,dailyrainin,SolarRadiationWatts/m^2,SoftwareType,DateUTC
2013-02-13 00:21:00,30.0,17.0,-100.00,SSW,201,11.0,11.0,59,0.00,,,0.00,0.000000,,2013-02-13 07:21:00,
2013-02-13 00:31:00,30.0,17.0,-100.00,SSW,201,11.0,11.0,59,0.00,,,0.00,0.000000,,2013-02-13 07:31:00,
2013-02-13 00:41:00,30.0,17.0,-100.00,SSW,201,11.0,11.0,59,0.00,,,0.00,0.000000,,2013-02-13 07:41:00,
2013-02-13 00:51:00,30.0,17.0,-100.00,SSW,201,11.0,11.0,59,0.00,,,0.00,0.000000,,2013-02-13 07:51:00,
2013-02-13 01:11:00,30.0,18.0,-100.00,SW,228,14.0,21.0,60,0.00,,,0.00,0.000000,,2013-02-13 08:11:00,
2013-02-13 01:21:00,30.0,18.0,-100.00,SW,228,14.0,21.0,60,0.00,,,0.00,0.000000,,2013-02-13 08:21:00,
2013-02-13 01:31:00,30.0,18.0,-100.00,SW,228,14.0,21.0,60,0.00,,,0.00,0.000000,,2013-02-13 08:31:00,
2013-02-13 01:42:00,30.0,18.0,-100.00,SW,228,14.0,21.0,60,0.00,,,0.00,0.000000,,2013-02-13 08:42:00,
2013-02-13 01:51:00,30.0,18.0,-100.00,SW,228,14.0,21.0,60,0.00,,,0.00,0.000000,,2013-02-13 08:51:00,
2013-02-13 02:11:00,31.0,18.0,-100.00,NW,308,19.0,38.0,59,0.00,,,0.00,0.000000,,2013-02-13 09:11:00,
2013-02-13 02:21:00,31.0,18.0,-100.00,NW,308,19.0,38.0,59,0.00,,,0.00,0.000000,,2013-02-13 09:21:00,
2013-02-13 02:31:00,31.0,18.0,-100.00,NW,308,19.0,38.0,59,0.00,,,0.00,0.000000,,2013-02-13 09:31:00,
2013-02-13 02:41:00,31.0,18.0,-100.00,NW,308,19.0,38.0,59,0.00,,,0.00,0.000000,,2013-02-13 09:41:00,
2013-02-13 02:51:00,31.0,18.0,-100.00,NW,308,19.0,38.0,59,0.00,,,0.00,0.000000,,2013-02-13 09:51:00,
2013-02-13 03:11:00,31.0,18.0,-100.00,SSW,210,7.0,32.0,57,0.00,,,0.00,0.000000,,2013-02-13 10:11:00,
2013-02-13 03:21:00,31.0,18.0,-100.00,SSW,210,7.0,32.0,57,0.00,,,0.00,0.000000,,2013-02-13 10:21:00,
2013-02-13 03:31:00,31.0,18.0,-100.00,SSW,210,7.0,32.0,57,0.00,,,0.00,0.000000,,2013-02-13 10:31:00,
2013-02-13 03:41:00,31.0,18.0,-100.00,SSW,210,7.0,32.0,57,0.00,,,0.00,0.000000,,2013-02-13 10:41:00,
2013-02-13 03:51:00,31.0,18.0,-100.00,SSW,210,7.0,32.0,57,0.00,,,0.00,0.000000,,2013-02-13 10:51:00,
2013-02-13 04:11:00,29.0,17.0,-100.00,SSE,149,4.0,18.0,61,0.00,,,0.00,0.000000,,2013-02-13 11:11:00,
2013-02-13 04:22:00,29.0,17.0,-100.00,SSE,149,4.0,18.0,61,0.00,,,0.00,0.000000,,2013-02-13 11:22:00,
2013-02-13 04:32:00,29.0,17.0,-100.00,SSE,149,4.0,18.0,61,0.00,,,0.00,0.000000,,2013-02-13 11:32:00,
2013-02-13 04:42:00,29.0,17.0,-100.00,SSE,149,4.0,18.0,61,0.00,,,0.00,0.000000,,2013-02-13 11:42:00,
2013-02-13 04:52:00,29.0,17.0,-100.00,SSE,149,4.0,18.0,61,0.00,,,0.00,0.000000,,2013-02-13 11:52:00,
2013-02-13 05:21:00,32.0,18.0,-100.00,West,262,13.0,26.0,55,0.00,,,0.00,0.000000,,2013-02-13 12:21:00,
2013-02-13 05:32:00,32.0,18.0,-100.00,West,262,13.0,26.0,55,0.00,,,0.00,0.000000,,2013-02-13 12:32:00,
2013-02-13 05:42:00,32.0,18.0,-100.00,West,262,13.0,26.0,55,0.00,,,0.00,0.000000,,2013-02-13 12:42:00,
2013-02-13 05:52:00,32.0,18.0,-100.00,West,262,13.0,26.0,55,0.00,,,0.00,0.000000,,2013-02-13 12:52:00,
2013-02-13 06:11:00,32.0,19.0,-100.00,West,280,29.0,43.0,58,0.00,,,0.00,0.000000,,2013-02-13 13:11:00,
2013-02-13 06:21:00,32.0,19.0,-100.00,West,280,29.0,43.0,58,0.00,,,0.00,0.000000,,2013-02-13 13:21:00,
2013-02-13 06:31:00,32.0,19.0,-100.00,West,280,29.0,43.0,58,0.00,,,0.00,0.000000,,2013-02-13 13:31:00,
2013-02-13 06:41:00,32.0,19.0,-100.00,West,280,29.0,43.0,58,0.00,,,0.00,0.000000,,2013-02-13 13:41:00,
2013-02-13 06:51:00,32.0,19.0,-100.00,West,280,29.0,43.0,58,0.00,,,0.00,0.000000,,2013-02-13 13:51:00,
2013-02-13 07:11:00,32.0,17.0,-100.00,WNW,282,18.0,44.0,53,0.00,,,0.00,0.000000,,2013-02-13 14:11:00,
2013-02-13 07:21:00,32.0,17.0,-100.00,WNW,282,18.0,44.0,53,0.00,,,0.00,0.000000,,2013-02-13 14:21:00,
2013-02-13 07:31:00,32.0,17.0,-100.00,WNW,282,18.0,44.0,53,0.00,,,0.00,0.000000,,2013-02-13 14:31:00,
2013-02-13 07:41:00,32.0,17.0,-100.00,WNW,282,18.0,44.0,53,0.00,,,0.00,0.000000,,2013-02-13 14:41:00,
2013-02-13 07:52:00,32.0,17.0,-100.00,WNW,282,18.0,44.0,53,0.00,,,0.00,0.000000,,2013-02-13 14:52:00,
2013-02-13 08:11:00,32.0,17.0,-100.00,WNW,285,22.0,40.0,54,0.00,,,0.00,2.000000,,2013-02-13 15:11:00,
2013-02-13 08:21:00,32.0,17.0,-100.00,WNW,285,22.0,40.0,54,0.00,,,0.00,2.000000,,2013-02-13 15:21:00,
2013-02-13 08:32:00,32.0,17.0,-100.00,WNW,285,22.0,40.0,54,0.00,,,0.00,2.000000,,2013-02-13 15:32:00,
2013-02-13 08:41:00,32.0,17.0,-100.00,WNW,285,22.0,40.0,54,0.00,,,0.00,2.000000,,2013-02-13 15:41:00,
2013-02-13 08:51:00,32.0,17.0,-100.00,WNW,285,22.0,40.0,54,0.00,,,0.00,2.000000,,2013-02-13 15:51:00,
2013-02-13 09:11:00,33.0,16.0,-100.00,WNW,284,26.0,40.0,49,0.00,,,-99.99,68.000000,,2013-02-13 16:11:00,
2013-02-13 09:21:00,33.0,16.0,-100.00,WNW,284,26.0,40.0,49,0.00,,,-99.99,68.000000,,2013-02-13 16:21:00,
2013-02-13 09:31:00,33.0,16.0,-100.00,WNW,284,26.0,40.0,49,0.00,,,-99.99,68.000000,,2013-02-13 16:31:00,
2013-02-13 09:41:00,33.0,16.0,-100.00,WNW,284,26.0,40.0,49,0.00,,,-99.99,68.000000,,2013-02-13 16:41:00,
2013-02-13 09:51:00,33.0,16.0,-100.00,WNW,284,26.0,40.0,49,0.00,,,-99.99,68.000000,,2013-02-13 16:51:00,
2013-02-13 10:11:00,34.0,16.0,-100.00,WNW,290,25.0,46.0,47,0.00,,,0.00,343.000000,,2013-02-13 17:11:00,
2013-02-13 10:21:00,34.0,16.0,-100.00,WNW,290,25.0,46.0,47,0.00,,,0.00,343.000000,,2013-02-13 17:21:00,
2013-02-13 10:31:00,34.0,16.0,-100.00,WNW,290,25.0,46.0,47,0.00,,,0.00,343.000000,,2013-02-13 17:31:00,
2013-02-13 10:41:00,34.0,16.0,-100.00,WNW,290,25.0,46.0,47,0.00,,,0.00,343.000000,,2013-02-13 17:41:00,
2013-02-13 10:52:00,34.0,16.0,-100.00,WNW,290,25.0,46.0,47,0.00,,,0.00,343.000000,,2013-02-13 17:52:00,
2013-02-13 11:22:00,35.0,14.0,-100.00,WNW,283,25.0,48.0,42,0.00,,,0.00,611.000000,,2013-02-13 18:22:00,
2013-02-13 11:32:00,35.0,14.0,-100.00,WNW,283,25.0,48.0,42,0.00,,,0.00,611.000000,,2013-02-13 18:32:00,
2013-02-13 11:41:00,35.0,14.0,-100.00,WNW,283,25.0,48.0,42,0.00,,,0.00,611.000000,,2013-02-13 18:41:00,
2013-02-13 11:51:00,35.0,14.0,-100.00,WNW,283,25.0,48.0,42,0.00,,,0.00,611.000000,,2013-02-13 18:51:00,
2013-02-13 12:11:00,37.0,16.0,-100.00,WNW,284,25.0,44.0,42,0.00,,,0.00,697.000000,,2013-02-13 19:11:00,
2013-02-13 12:21:00,37.0,16.0,-100.00,WNW,284,25.0,44.0,42,0.00,,,0.00,697.000000,,2013-02-13 19:21:00,
2013-02-13 12:31:00,37.0,16.0,-100.00,WNW,284,25.0,44.0,42,0.00,,,0.00,697.000000,,2013-02-13 19:31:00,
2013-02-13 12:41:00,37.0,16.0,-100.00,WNW,284,25.0,44.0,42,0.00,,,0.00,697.000000,,2013-02-13 19:41:00,
2013-02-13 12:51:00,37.0,16.0,-100.00,WNW,284,25.0,44.0,42,0.00,,,0.00,697.000000,,2013-02-13 19:51:00,
2013-02-13 13:21:00,37.0,15.0,-100.00,WNW,288,23.0,47.0,40,0.00,,,0.00,838.000000,,2013-02-13 20:21:00,
2013-02-13 13:31:00,37.0,15.0,-100.00,WNW,288,23.0,47.0,40,0.00,,,0.00,838.000000,,2013-02-13 20:31:00,
2013-02-13 13:41:00,37.0,15.0,-100.00,WNW,288,23.0,47.0,40,0.00,,,0.00,838.000000,,2013-02-13 20:41:00,
2013-02-13 13:52:00,37.0,15.0,-100.00,WNW,288,23.0,47.0,40,0.00,,,0.00,838.000000,,2013-02-13 20:52:00,
2013-02-13 14:21:00,37.0,15.0,-100.00,WNW,282,29.0,41.0,40,0.00,,,0.00,802.000000,,2013-02-13 21:21:00,
2013-02-13 14:31:00,37.0,15.0,-100.00,WNW,282,29.0,41.0,40,0.00,,,0.00,802.000000,,2013-02-13 21:31:00,
2013-02-13 14:42:00,37.0,15.0,-100.00,WNW,282,29.0,41.0,40,0.00,,,0.00,802.000000,,2013-02-13 21:42:00,
2013-02-13 14:52:00,37.0,15.0,-100.00,WNW,282,29.0,41.0,40,0.00,,,0.00,802.000000,,2013-02-13 21:52:00,
2013-02-13 15:11:00,32.0,10.0,-100.00,West,281,22.0,45.0,40,0.00,,,0.00,308.000000,,2013-02-13 22:11:00,
2013-02-13 15:21:00,32.0,10.0,-100.00,West,281,22.0,45.0,40,0.00,,,0.00,308.000000,,2013-02-13 22:21:00,
2013-02-13 15:31:00,32.0,10.0,-100.00,West,281,22.0,45.0,40,0.00,,,0.00,308.000000,,2013-02-13 22:31:00,
2013-02-13 15:42:00,32.0,10.0,-100.00,West,281,22.0,45.0,40,0.00,,,0.00,308.000000,,2013-02-13 22:42:00,
2013-02-13 15:51:00,32.0,10.0,-100.00,West,281,22.0,45.0,40,0.00,,,0.00,308.000000,,2013-02-13 22:51:00,
2013-02-13 16:11:00,33.0,13.0,-100.00,WNW,294,24.0,49.0,43,0.00,,,0.00,144.000000,,2013-02-13 23:11:00,
2013-02-13 16:21:00,33.0,13.0,-100.00,WNW,294,24.0,49.0,43,0.00,,,0.00,144.000000,,2013-02-13 23:21:00,
2013-02-13 16:31:00,33.0,13.0,-100.00,WNW,294,24.0,49.0,43,0.00,,,0.00,144.000000,,2013-02-13 23:31:00,
2013-02-13 16:41:00,33.0,13.0,-100.00,WNW,294,24.0,49.0,43,0.00,,,0.00,144.000000,,2013-02-13 23:41:00,
2013-02-13 16:52:00,33.0,13.0,-100.00,WNW,294,24.0,49.0,43,0.00,,,0.00,144.000000,,2013-02-13 23:52:00,
2013-02-13 17:21:00,32.0,13.0,-100.00,WNW,297,30.0,43.0,44,0.00,,,0.00,102.000000,,2013-02-14 00:21:00,
2013-02-13 17:31:00,32.0,13.0,-100.00,WNW,297,30.0,43.0,44,0.00,,,0.00,102.000000,,2013-02-14 00:31:00,
2013-02-13 17:42:00,32.0,13.0,-100.00,WNW,297,30.0,43.0,44,0.00,,,0.00,102.000000,,2013-02-14 00:42:00,
2013-02-13 17:51:00,32.0,13.0,-100.00,WNW,297,30.0,43.0,44,0.00,,,0.00,102.000000,,2013-02-14 00:51:00,
2013-02-13 18:11:00,30.0,14.0,-100.00,WNW,286,26.0,44.0,51,0.00,,,0.00,23.000000,,2013-02-14 01:11:00,
2013-02-13 18:21:00,30.0,14.0,-100.00,WNW,286,26.0,44.0,51,0.00,,,0.00,23.000000,,2013-02-14 01:21:00,
2013-02-13 18:31:00,30.0,14.0,-100.00,WNW,286,26.0,44.0,51,0.00,,,0.00,23.000000,,2013-02-14 01:31:00,
2013-02-13 18:41:00,30.0,14.0,-100.00,WNW,286,26.0,44.0,51,0.00,,,0.00,23.000000,,2013-02-14 01:41:00,
2013-02-13 18:51:00,30.0,14.0,-100.00,WNW,286,26.0,44.0,51,0.00,,,0.00,23.000000,,2013-02-14 01:51:00,
2013-02-13 19:21:00,29.0,13.0,-100.00,WNW,291,25.0,56.0,50,0.00,,,0.00,0.000000,,2013-02-14 02:21:00,
2013-02-13 19:31:00,29.0,13.0,-100.00,WNW,291,25.0,56.0,50,0.00,,,0.00,0.000000,,2013-02-14 02:31:00,
2013-02-13 19:41:00,29.0,13.0,-100.00,WNW,291,25.0,56.0,50,0.00,,,0.00,0.000000,,2013-02-14 02:41:00,
2013-02-13 19:51:00,29.0,13.0,-100.00,WNW,291,25.0,56.0,50,0.00,,,0.00,0.000000,,2013-02-14 02:51:00,
2013-02-13 20:21:00,29.0,13.0,-100.00,NW,311,29.0,44.0,50,0.00,,,0.00,0.000000,,2013-02-14 03:21:00,
2013-02-13 20:31:00,29.0,13.0,-100.00,NW,311,29.0,44.0,50,0.00,,,0.00,0.000000,,2013-02-14 03:31:00,
2013-02-13 20:42:00,29.0,13.0,-100.00,NW,311,29.0,44.0,50,0.00,,,0.00,0.000000,,2013-02-14 03:42:00,
2013-02-13 20:51:00,29.0,13.0,-100.00,NW,311,29.0,44.0,50,0.00,,,0.00,0.000000,,2013-02-14 03:51:00,
2013-02-13 21:11:00,29.0,14.0,-100.00,NW,311,32.0,47.0,52,0.00,,,0.00,0.000000,,2013-02-14 04:11:00,
2013-02-13 21:21:00,29.0,14.0,-100.00,NW,311,32.0,47.0,52,0.00,,,0.00,0.000000,,2013-02-14 04:21:00,
2013-02-13 21:31:00,29.0,14.0,-100.00,NW,311,32.0,47.0,52,0.00,,,0.00,0.000000,,2013-02-14 04:31:00,
2013-02-13 21:41:00,29.0,14.0,-100.00,NW,311,32.0,47.0,52,0.00,,,0.00,0.000000,,2013-02-14 04:41:00,
2013-02-13 21:51:00,29.0,14.0,-100.00,NW,311,32.0,47.0,52,0.00,,,0.00,0.000000,,2013-02-14 04:51:00,
2013-02-13 22:11:00,28.0,13.0,-100.00,NW,307,29.0,44.0,53,0.00,,,0.00,0.000000,,2013-02-14 05:11:00,
2013-02-13 22:21:00,28.0,13.0,-100.00,NW,307,29.0,44.0,53,0.00,,,0.00,0.000000,,2013-02-14 05:21:00,
2013-02-13 22:31:00,28.0,13.0,-100.00,NW,307,29.0,44.0,53,0.00,,,0.00,0.000000,,2013-02-14 05:31:00,
2013-02-13 22:41:00,28.0,13.0,-100.00,NW,307,29.0,44.0,53,0.00,,,0.00,0.000000,,2013-02-14 05:41:00,
2013-02-13 22:51:00,28.0,13.0,-100.00,NW,307,29.0,44.0,53,0.00,,,0.00,0.000000,,2013-02-14 05:51:00,
2013-02-13 23:11:00,28.0,13.0,-100.00,NW,318,15.0,48.0,52,0.00,,,0.00,0.000000,,2013-02-14 06:11:00,
2013-02-13 23:21:00,28.0,13.0,-100.00,NW,318,15.0,48.0,52,0.00,,,0.00,0.000000,,2013-02-14 06:21:00,
2013-02-13 23:31:00,28.0,13.0,-100.00,NW,318,15.0,48.0,52,0.00,,,0.00,0.000000,,2013-02-14 06:31:00,
2013-02-13 23:41:00,28.0,13.0,-100.00,NW,318,15.0,48.0,52,0.00,,,0.00,0.000000,,2013-02-14 06:41:00,
2013-02-13 23:51:00,28.0,13.0,-100.00,NW,318,15.0,48.0,52,0.00,,,0.00,0.000000,,2013-02-14 06:51:00,